Starlink 2410

operational
NORAD ID: 47825 Int'l Des: 2021-018 Owner: SPXS Country: US Constellation: starlink
LEOCIRCULAR

About Starlink 2410

Description loading...

Live Position

Loading 3D Globe...

Upcoming Passes

Altitude History

Altitude vs Time

uPlot chart will show altitude changes over time

Two-Line Element Set

1 47825U 21018AQ 26061.00566288 .00003354 00000-0 12528-3 0 9994
2 47825 53.1598 278.5359 0001423 86.7719 273.3445 15.30206470275556
Epoch: Mar 2, 2026 • Age: 37 hours

Current Status

Altitude 494.7 km
Velocity 7.62 km/s
Sub-Earth Point -53.29°S, 177.46°E
Launch Date Mar 11, 2021
Age 4.9 years
Type internet

Technical Details

Classification Payload
Mass 260.00 kg
Dry Mass 248.00 kg
Total Mass 260.00 kg
Length 0.20 m
Diameter 2.80 m
Span 9.00 m
Shape Box + pan
Manufacturer SPXS
Bus Type Starlink
Phase Status In Orbit
Owner/State SPXS/US

Large Constellations

Loading constellations...